This is the latest recevied weather packets stored in our database for station/object DW2488. If no packets are shown the sender has not sent any weather packets the latest 10 day(s).
| Time | Temp. | Humidity | Pressure | Rain* | Wind** | Luminosity | Snow |
|---|---|---|---|---|---|---|---|
| 1778097074 | 10.56° C | 70% | 1012.8 hPa | 0 mm | - | 0 W/m² | - |
| 1778096179 | 11.11° C | 68% | 1012.9 hPa | 0 mm | - | 0 W/m² | - |
| 1778095272 | 11.67° C | 67% | 1012.8 hPa | 0 mm | - | 0 W/m² | - |
| 1778094373 | 10.56° C | 70% | 1012.9 hPa | 0 mm | - | 0 W/m² | - |
| 1778093473 | 10° C | 72% | 1013.1 hPa | 0 mm | - | 0 W/m² | - |
| 1778092561 | 9.44° C | 75% | 1013.1 hPa | 0 mm | - | 0 W/m² | - |
| 1778091661 | 10.56° C | 72% | 1013 hPa | 0 mm | - | 0 W/m² | - |
| 1778090758 | 10.56° C | 72% | 1013 hPa | 0 mm | - | 0 W/m² | - |
| 1778089855 | 10° C | 74% | 1013.1 hPa | 0 mm | - | 0 W/m² | - |
| 1778088955 | 11.11° C | 71% | 1013.2 hPa | 0 mm | - | 0 W/m² | - |
| 1778088044 | 12.22° C | 69% | 1013.5 hPa | 0 mm | - | 0 W/m² | - |
| 1778087137 | 12.22° C | 68% | 1013.6 hPa | 0 mm | - | 0 W/m² | - |
| 1778086234 | 12.22° C | 71% | 1013.7 hPa | 0 mm | - | 0 W/m² | - |
| 1778085338 | 9.44° C | 82% | 1013.6 hPa | 0 mm | - | 0 W/m² | - |
| 1778084428 | 9.44° C | 82% | 1013.7 hPa | 0 mm | - | 0 W/m² | - |
| 1778083525 | 9.44° C | 84% | 1013.9 hPa | 0 mm | - | 0 W/m² | - |
| 1778082623 | 8.89° C | 85% | 1014 hPa | 0 mm | - | 0 W/m² | - |
| 1778081714 | 8.89° C | 85% | 1014.3 hPa | 0 mm | - | 0 W/m² | - |
| 1778080812 | 9.44° C | 85% | 1014.4 hPa | 0 mm | - | 0 W/m² | - |
| 1778079918 | 9.44° C | 85% | 1014.4 hPa | 0 mm | - | 0 W/m² | - |
| 1778078989 | 10° C | 85% | 1014.5 hPa | 0 mm | - | 0 W/m² | - |
| 1778078064 | 10° C | 85% | 1014.5 hPa | 0 mm | - | 0 W/m² | - |
| 1778077161 | 10.56° C | 85% | 1014.6 hPa | 0 mm | - | 0 W/m² | - |
| 1778076259 | 10.56° C | 85% | 1014.8 hPa | 0 mm | - | 0 W/m² | - |
| 1778075353 | 10.56° C | 85% | 1014.8 hPa | 0 mm | - | 0 W/m² | - |
* Rain latest hour (hover to see other rain measurements)
** Current wind speed in m/s (hover to see current wind gust speed)